sat.trackr.live / text

‹ back to catalog

STARLINK-35248

NORAD 65598 · 2025-207G

PAYLOAD ACTIVE UNKNOWN

§ Identity

Operator
Country
US
Launch date
2025-09-13
Launch site
AFWTR
Launch vehicle
Mass (kg)
RCS (m²)

Purposes: comms

External: N2YO · Heavens-Above · Gunter

§ Orbital elements

Epoch: 2026-09-20T22:00:03.000096Z

Period
93.91 min
Inclination
97.2852°
Eccentricity
0.0001895
Mean motion
15.33447903 rev/d
Perigee alt
464.2 km
Apogee alt
466.8 km
Semi-major
6,843.7 km
B*
-4.0142e-4
RAAN
326.5057°
Arg perigee
82.9502°
Mean anomaly
2.5813°
Rev number
579

§ Raw data

STARLINK-352481 65598U 25207G   26263.91670139 -.00013014  00000+0 -40142-3 0  99982 65598  97.2852 326.5057 0001895  82.9502   2.5813 15.33447903  5794

JSON: /api/v1/satellites/65598 · /tle

For live sub-satellite position, see the globe view (requires WebGL).

§ Visibility from observer

Set your observer location to see the next 7 days of passes ≥ 10°. The values pass through the URL so the page stays shareable.

No JS? Fill the form by hand. The geolocation button needs JavaScript.